| time (UTC) | temp C | wind direction | speed KPH | gust KPH | rain 1hr cm | rain 24hr cm | rain mn cm | humidity % | barometer mb |
| 20260505230054 | 25 | 0 | 0.0 | 6.4 | 0.00 | 0.00 | 0.00 | 48 | 1013.9 |
| 20260505225548 | 25 | 189 | 0.0 | 0.0 | 0.00 | 0.00 | 0.00 | 49 | 1014.0 |
| 20260505225047 | 25 | 0 | 0.0 | 0.0 | 0.00 | 0.00 | 0.00 | 49 | 1014.0 |
| 20260505224552 | 25 | 0 | 0.0 | 0.0 | 0.00 | 0.00 | 0.00 | 49 | 1014.1 |
| 20260505224051 | 25 | 0 | 0.0 | 12.9 | 0.00 | 0.00 | 0.00 | 48 | 1014.1 |
| 20260505223547 | 25 | 0 | 0.0 | 12.9 | 0.00 | 0.00 | 0.00 | 48 | 1014.1 |
| 20260505223052 | 25 | 0 | 0.0 | 0.0 | 0.00 | 0.00 | 0.00 | 48 | 1014.2 |
| 20260505222548 | 25 | 0 | 0.0 | 0.0 | 0.00 | 0.00 | 0.00 | 48 | 1014.2 |
| 20260505222047 | 26 | 0 | 0.0 | 19.3 | 0.00 | 0.00 | 0.00 | 47 | 1014.1 |
| 20260505221552 | 26 | 0 | 0.0 | 19.3 | 0.00 | 0.00 | 0.00 | 47 | 1014.2 |
| 20260505221046 | 26 | 0 | 0.0 | 19.3 | 0.00 | 0.00 | 0.00 | 47 | 1014.1 |
| 20260505220546 | 26 | 0 | 0.0 | 19.3 | 0.00 | 0.00 | 0.00 | 46 | 1014.2 |
| 20260505220052 | 26 | 237 | 3.2 | 19.3 | 0.00 | 0.00 | 0.00 | 46 | 1014.2 |
| 20260505215547 | 26 | 197 | 0.0 | 0.0 | 0.00 | 0.00 | 0.00 | 47 | 1014.2 |
| 20260505215048 | 26 | 0 | 0.0 | 17.7 | 0.00 | 0.00 | 0.00 | 47 | 1014.2 |
| 20260505214601 | 26 | 0 | 0.0 | 17.7 | 0.00 | 0.00 | 0.00 | 47 | 1014.2 |
| 20260505214047 | 26 | 0 | 0.0 | 17.7 | 0.00 | 0.00 | 0.00 | 46 | 1014.1 |
| 20260505213547 | 26 | 0 | 0.0 | 0.0 | 0.00 | 0.00 | 0.00 | 46 | 1014.1 |
| 20260505213048 | 26 | 0 | 0.0 | 17.7 | 0.00 | 0.00 | 0.00 | 47 | 1014.0 |
| 20260505212548 | 26 | 0 | 1.6 | 17.7 | 0.00 | 0.00 | 0.00 | 47 | 1014.1 |
| 20260505212048 | 27 | 0 | 0.0 | 9.7 | 0.00 | 0.00 | 0.00 | 44 | 1014.1 |
| 20260505211553 | 27 | 277 | 0.0 | 14.5 | 0.00 | 0.00 | 0.00 | 45 | 1014.1 |
| 20260505211048 | 27 | 0 | 1.6 | 14.5 | 0.00 | 0.00 | 0.00 | 44 | 1014.1 |
| 20260505210547 | 27 | 131 | 0.0 | 20.9 | 0.00 | 0.00 | 0.00 | 44 | 1014.3 |
| 20260505210053 | 27 | 0 | 0.0 | 20.9 | 0.00 | 0.00 | 0.00 | 45 | 1014.3 |
| 20260505205547 | 27 | 148 | 0.0 | 16.1 | 0.00 | 0.00 | 0.00 | 44 | 1014.4 |
| 20260505205046 | 26 | 133 | 0.0 | 29.0 | 0.00 | 0.00 | 0.00 | 45 | 1014.4 |
| 20260505204556 | 26 | 0 | 1.6 | 29.0 | 0.00 | 0.00 | 0.00 | 44 | 1014.3 |
| 20260505204049 | 27 | 0 | 0.0 | 22.5 | 0.00 | 0.00 | 0.00 | 46 | 1014.2 |
| 20260505203547 | 27 | 0 | 1.6 | 22.5 | 0.00 | 0.00 | 0.00 | 46 | 1014.3 |
| 20260505203051 | 27 | 0 | 0.0 | 19.3 | 0.00 | 0.00 | 0.00 | 45 | 1014.3 |
| 20260505202550 | 27 | 0 | 0.0 | 19.3 | 0.00 | 0.00 | 0.00 | 47 | 1014.3 |
| 20260505202048 | 27 | 0 | 0.0 | 14.5 | 0.00 | 0.00 | 0.00 | 46 | 1014.3 |
| 20260505201555 | 26 | 0 | 0.0 | 12.9 | 0.00 | 0.00 | 0.00 | 45 | 1014.4 |
| 20260505201045 | 26 | 0 | 0.0 | 14.5 | 0.00 | 0.00 | 0.00 | 47 | 1014.6 |
| 20260505200545 | 26 | 0 | 0.0 | 14.5 | 0.00 | 0.00 | 0.00 | 46 | 1014.6 |
| 20260505200050 | 26 | 148 | 3.2 | 20.9 | 0.00 | 0.00 | 0.00 | 44 | 1014.6 |
| 20260505195546 | 27 | 0 | 0.0 | 20.9 | 0.00 | 0.00 | 0.00 | 43 | 1014.7 |
| 20260505195044 | 27 | 0 | 0.0 | 16.1 | 0.00 | 0.00 | 0.00 | 45 | 1014.9 |
| 20260505194552 | 27 | 0 | 0.0 | 16.1 | 0.00 | 0.00 | 0.00 | 44 | 1015.0 |
| 20260505194045 | 27 | 0 | 0.0 | 0.0 | 0.00 | 0.00 | 0.00 | 47 | 1015.0 |
| 20260505193544 | 26 | 0 | 0.0 | 17.7 | 0.00 | 0.00 | 0.00 | 46 | 1015.1 |
| 20260505193050 | 26 | 0 | 0.0 | 17.7 | 0.00 | 0.00 | 0.00 | 45 | 1015.1 |
| 20260505192544 | 27 | 0 | 3.2 | 17.7 | 0.00 | 0.00 | 0.00 | 44 | 1015.2 |
| 20260505192045 | 27 | 0 | 0.0 | 17.7 | 0.00 | 0.00 | 0.00 | 45 | 1015.3 |
| 20260505191602 | 27 | 0 | 0.0 | 0.0 | 0.00 | 0.00 | 0.00 | 45 | 1015.4 |
| 20260505191044 | 27 | 0 | 0.0 | 0.0 | 0.00 | 0.00 | 0.00 | 46 | 1015.5 |
| 20260505190550 | 27 | 0 | 0.0 | 0.0 | 0.00 | 0.00 | 0.00 | 44 | 1015.5 |
| 20260505190057 | 27 | 0 | 0.0 | 0.0 | 0.00 | 0.00 | 0.00 | 44 | 1015.6 |
| 20260505185545 | 27 | 0 | 0.0 | 16.1 | 0.00 | 0.00 | 0.00 | 44 | 1015.6 |
| 20260505185044 | 27 | 0 | 0.0 | 16.1 | 0.00 | 0.00 | 0.00 | 45 | 1015.8 |
| 20260505184553 | 27 | 0 | 0.0 | 19.3 | 0.00 | 0.00 | 0.00 | 42 | 1015.8 |
| 20260505184044 | 26 | 0 | 1.6 | 19.3 | 0.00 | 0.00 | 0.00 | 46 | 1015.9 |
| 20260505183545 | 26 | 121 | 6.4 | 19.3 | 0.00 | 0.00 | 0.00 | 44 | 1016.0 |
| 20260505183112 | 26 | 0 | 0.0 | 16.1 | 0.00 | 0.00 | 0.00 | 45 | 1016.0 |
| 20260505182544 | 26 | 0 | 0.0 | 22.5 | 0.00 | 0.00 | 0.00 | 49 | 1015.9 |
| 20260505182045 | 26 | 0 | 0.0 | 22.5 | 0.00 | 0.00 | 0.00 | 45 | 1016.0 |
| 20260505181551 | 27 | 0 | 3.2 | 22.5 | 0.00 | 0.00 | 0.00 | 46 | 1016.2 |
| 20260505181045 | 26 | 0 | 0.0 | 0.0 | 0.00 | 0.00 | 0.00 | 45 | 1016.1 |
| 20260505180545 | 26 | 0 | 0.0 | 14.5 | 0.00 | 0.00 | 0.00 | 49 | 1016.1 |
| 20260505180050 | 26 | 0 | 0.0 | 14.5 | 0.00 | 0.00 | 0.00 | 45 | 1016.1 |
| 20260505175545 | 26 | 248 | 3.2 | 12.9 | 0.00 | 0.00 | 0.00 | 47 | 1016.2 |
| 20260505175044 | 26 | 0 | 1.6 | 12.9 | 0.00 | 0.00 | 0.00 | 47 | 1016.1 |
| 20260505174555 | 26 | 0 | 0.0 | 4.8 | 0.00 | 0.00 | 0.00 | 47 | 1016.3 |
| 20260505174045 | 26 | 0 | 0.0 | 17.7 | 0.00 | 0.00 | 0.00 | 45 | 1016.3 |
| 20260505173545 | 26 | 0 | 1.6 | 17.7 | 0.00 | 0.00 | 0.00 | 48 | 1016.4 |
| 20260505173059 | 26 | 0 | 0.0 | 16.1 | 0.00 | 0.00 | 0.00 | 46 | 1016.3 |
| 20260505172546 | 26 | 0 | 0.0 | 16.1 | 0.00 | 0.00 | 0.00 | 46 | 1016.4 |
| 20260505172043 | 26 | 0 | 1.6 | 16.1 | 0.00 | 0.00 | 0.00 | 47 | 1016.5 |
| 20260505171600 | 26 | 0 | 0.0 | 0.0 | 0.00 | 0.00 | 0.00 | 47 | 1016.4 |
| 20260505171046 | 26 | 0 | 0.0 | 14.5 | 0.00 | 0.00 | 0.00 | 49 | 1016.5 |
| 20260505170544 | 26 | 0 | 1.6 | 14.5 | 0.00 | 0.00 | 0.00 | 48 | 1016.5 |
| 20260505170052 | 26 | 0 | 0.0 | 25.7 | 0.00 | 0.00 | 0.00 | 49 | 1016.5 |
| 20260505165544 | 26 | 0 | 0.0 | 25.7 | 0.00 | 0.00 | 0.00 | 52 | 1016.6 |
| 20260505165043 | 26 | 0 | 0.0 | 14.5 | 0.00 | 0.00 | 0.00 | 49 | 1016.7 |
| 20260505164551 | 26 | 0 | 0.0 | 25.7 | 0.00 | 0.00 | 0.00 | 52 | 1016.7 |
| 20260505164043 | 25 | 0 | 8.0 | 25.7 | 0.00 | 0.00 | 0.00 | 50 | 1016.9 |
| 20260505163543 | 26 | 0 | 4.8 | 19.3 | 0.00 | 0.00 | 0.00 | 51 | 1016.9 |
| 20260505163050 | 25 | 0 | 0.0 | 17.7 | 0.00 | 0.00 | 0.00 | 53 | 1016.8 |
| 20260505162545 | 25 | 253 | 1.6 | 17.7 | 0.00 | 0.00 | 0.00 | 52 | 1016.9 |
| 20260505162043 | 25 | 140 | 0.0 | 17.7 | 0.00 | 0.00 | 0.00 | 54 | 1017.0 |
| 20260505161615 | 25 | 0 | 0.0 | 14.5 | 0.00 | 0.00 | 0.00 | 53 | 1017.2 |
| 20260505161045 | 25 | 0 | 0.0 | 22.5 | 0.00 | 0.00 | 0.00 | 51 | 1017.2 |
| 20260505160544 | 25 | 0 | 1.6 | 22.5 | 0.00 | 0.00 | 0.00 | 51 | 1017.3 |
| 20260505153051 | 25 | 0 | 0.0 | 14.5 | 0.00 | 0.00 | 0.00 | 55 | 1017.5 |
| 20260505152541 | 25 | 0 | 0.0 | 17.7 | 0.00 | 0.00 | 0.00 | 57 | 1017.5 |
| 20260505152045 | 24 | 0 | 0.0 | 17.7 | 0.00 | 0.00 | 0.00 | 56 | 1017.6 |
| 20260505151550 | 24 | 0 | 0.0 | 14.5 | 0.00 | 0.00 | 0.00 | 57 | 1017.5 |
| 20260505151042 | 23 | 0 | 0.0 | 19.3 | 0.00 | 0.00 | 0.00 | 57 | 1017.6 |
| 20260505150542 | 23 | 0 | 4.8 | 19.3 | 0.00 | 0.00 | 0.00 | 55 | 1017.6 |
| 20260505140546 | 21 | 0 | 0.0 | 12.9 | 0.00 | 0.00 | 0.00 | 66 | 1017.6 |
| 20260505124553 | 17 | 0 | 0.0 | 0.0 | 0.00 | 0.00 | 0.00 | 76 | 1017.7 |
| 20260505124049 | 17 | 0 | 0.0 | 0.0 | 0.00 | 0.00 | 0.00 | 77 | 1017.7 |
| 20260505123549 | 16 | 0 | 0.0 | 0.0 | 0.00 | 0.00 | 0.00 | 77 | 1017.7 |
| 20260505123053 | 16 | 0 | 0.0 | 0.0 | 0.00 | 0.00 | 0.00 | 79 | 1017.7 |
| 20260505122547 | 16 | 0 | 0.0 | 0.0 | 0.00 | 0.00 | 0.00 | 79 | 1017.7 |
| 20260505122048 | 15 | 0 | 0.0 | 0.0 | 0.00 | 0.00 | 0.00 | 80 | 1017.6 |
| 20260505121557 | 15 | 0 | 0.0 | 0.0 | 0.00 | 0.00 | 0.00 | 81 | 1017.5 |
| 20260505121048 | 15 | 0 | 0.0 | 0.0 | 0.00 | 0.00 | 0.00 | 81 | 1017.6 |
| 20260505120549 | 14 | 0 | 0.0 | 0.0 | 0.00 | 0.00 | 0.00 | 82 | 1017.5 |
| 20260505120111 | 14 | 0 | 0.0 | 0.0 | 0.00 | 0.00 | 0.00 | 83 | 1017.4 |
| 20260505115546 | 13 | 0 | 0.0 | 0.0 | 0.00 | 0.00 | 0.00 | 84 | 1017.4 |
| 20260505115047 | 13 | 0 | 0.0 | 0.0 | 0.00 | 0.00 | 0.00 | 85 | 1017.5 |
| 20260505114552 | 13 | 0 | 0.0 | 0.0 | 0.00 | 0.00 | 0.00 | 87 | 1017.4 |
| 20260505114047 | 13 | 0 | 0.0 | 0.0 | 0.00 | 0.00 | 0.00 | 88 | 1017.3 |
| 20260505113546 | 12 | 0 | 0.0 | 0.0 | 0.00 | 0.00 | 0.00 | 89 | 1017.3 |
| 20260505113049 | 12 | 0 | 0.0 | 0.0 | 0.00 | 0.00 | 0.00 | 89 | 1017.2 |
| 20260505112547 | 12 | 0 | 0.0 | 0.0 | 0.00 | 0.00 | 0.00 | 90 | 1017.3 |
| 20260505112044 | 11 | 0 | 0.0 | 0.0 | 0.00 | 0.00 | 0.00 | 90 | 1017.2 |
| 20260505111550 | 11 | 0 | 0.0 | 0.0 | 0.00 | 0.00 | 0.00 | 90 | 1017.1 |
| 20260505111048 | 11 | 0 | 0.0 | 0.0 | 0.00 | 0.00 | 0.00 | 90 | 1016.9 |
| 20260505110548 | 11 | 0 | 0.0 | 0.0 | 0.00 | 0.00 | 0.00 | 89 | 1016.9 |
| 20260505102046 | 11 | 0 | 0.0 | 0.0 | 0.00 | 0.00 | 0.00 | 87 | 1016.4 |
| 20260505101555 | 11 | 0 | 0.0 | 0.0 | 0.00 | 0.00 | 0.00 | 86 | 1016.3 |
| 20260505101044 | 11 | 0 | 0.0 | 0.0 | 0.00 | 0.00 | 0.00 | 86 | 1016.4 |
| 20260505100544 | 11 | 0 | 0.0 | 0.0 | 0.00 | 0.00 | 0.00 | 85 | 1016.3 |
| 20260505100057 | 11 | 0 | 0.0 | 0.0 | 0.00 | 0.00 | 0.00 | 85 | 1016.3 |
| 20260505095543 | 11 | 0 | 0.0 | 0.0 | 0.00 | 0.00 | 0.00 | 84 | 1016.3 |
| 20260505095042 | 11 | 0 | 0.0 | 0.0 | 0.00 | 0.00 | 0.00 | 84 | 1016.2 |
| 20260505094555 | 12 | 0 | 0.0 | 0.0 | 0.00 | 0.00 | 0.00 | 83 | 1016.2 |
| 20260505094049 | 12 | 0 | 0.0 | 0.0 | 0.00 | 0.00 | 0.00 | 83 | 1016.3 |
| 20260505093543 | 12 | 0 | 0.0 | 0.0 | 0.00 | 0.00 | 0.00 | 83 | 1016.2 |
| 20260505093057 | 12 | 0 | 0.0 | 0.0 | 0.00 | 0.00 | 0.00 | 83 | 1016.2 |
| 20260505092546 | 12 | 0 | 0.0 | 0.0 | 0.00 | 0.00 | 0.00 | 82 | 1016.1 |
| 20260505092043 | 12 | 0 | 0.0 | 0.0 | 0.00 | 0.00 | 0.00 | 82 | 1016.1 |
| 20260505091606 | 12 | 0 | 0.0 | 0.0 | 0.00 | 0.00 | 0.00 | 82 | 1016.1 |
| 20260505091042 | 12 | 0 | 0.0 | 0.0 | 0.00 | 0.00 | 0.00 | 81 | 1016.0 |
| 20260505090542 | 12 | 0 | 0.0 | 0.0 | 0.00 | 0.00 | 0.00 | 81 | 1015.8 |
| 20260505090052 | 13 | 0 | 0.0 | 0.0 | 0.00 | 0.00 | 0.00 | 80 | 1015.9 |
| 20260505085544 | 13 | 0 | 0.0 | 0.0 | 0.00 | 0.00 | 0.00 | 80 | 1015.9 |
| 20260505085043 | 13 | 0 | 0.0 | 0.0 | 0.00 | 0.00 | 0.00 | 79 | 1015.8 |
| 20260505084552 | 13 | 0 | 0.0 | 0.0 | 0.00 | 0.00 | 0.00 | 79 | 1015.7 |
| 20260505084045 | 13 | 0 | 0.0 | 0.0 | 0.00 | 0.00 | 0.00 | 78 | 1015.7 |
| 20260505083544 | 13 | 0 | 0.0 | 0.0 | 0.00 | 0.00 | 0.00 | 78 | 1015.8 |
| 20260505083052 | 13 | 0 | 0.0 | 0.0 | 0.00 | 0.00 | 0.00 | 78 | 1015.6 |
| 20260505082545 | 13 | 0 | 0.0 | 0.0 | 0.00 | 0.00 | 0.00 | 78 | 1015.6 |
| 20260505082043 | 13 | 0 | 0.0 | 0.0 | 0.00 | 0.00 | 0.00 | 78 | 1015.6 |
| 20260505081549 | 13 | 0 | 0.0 | 0.0 | 0.00 | 0.00 | 0.00 | 78 | 1015.6 |
| 20260505081042 | 13 | 0 | 0.0 | 0.0 | 0.00 | 0.00 | 0.00 | 78 | 1015.6 |
| 20260505080545 | 13 | 0 | 0.0 | 0.0 | 0.00 | 0.00 | 0.00 | 78 | 1015.6 |
| 20260505080051 | 13 | 0 | 0.0 | 0.0 | 0.00 | 0.00 | 0.00 | 78 | 1015.6 |
| 20260505075542 | 13 | 0 | 0.0 | 0.0 | 0.00 | 0.00 | 0.00 | 78 | 1015.6 |
| 20260505075041 | 13 | 0 | 0.0 | 0.0 | 0.00 | 0.00 | 0.00 | 78 | 1015.6 |
| 20260505074551 | 13 | 0 | 0.0 | 0.0 | 0.00 | 0.00 | 0.00 | 77 | 1015.5 |
| 20260505074047 | 14 | 0 | 0.0 | 0.0 | 0.00 | 0.00 | 0.00 | 77 | 1015.5 |
| 20260505073547 | 14 | 0 | 0.0 | 0.0 | 0.00 | 0.00 | 0.00 | 76 | 1015.6 |
| 20260505073103 | 14 | 0 | 0.0 | 0.0 | 0.00 | 0.00 | 0.00 | 76 | 1015.6 |
| 20260505072546 | 14 | 0 | 0.0 | 0.0 | 0.00 | 0.00 | 0.00 | 76 | 1015.6 |
| 20260505072046 | 14 | 0 | 0.0 | 0.0 | 0.00 | 0.00 | 0.00 | 75 | 1015.5 |
| 20260505071559 | 14 | 0 | 0.0 | 0.0 | 0.00 | 0.00 | 0.00 | 75 | 1015.5 |
| 20260505071049 | 14 | 0 | 0.0 | 0.0 | 0.00 | 0.00 | 0.00 | 75 | 1015.5 |
| 20260505070547 | 15 | 0 | 0.0 | 0.0 | 0.00 | 0.00 | 0.00 | 74 | 1015.5 |
| 20260505070055 | 15 | 0 | 0.0 | 0.0 | 0.00 | 0.00 | 0.00 | 74 | 1015.5 |
| 20260505065547 | 15 | 0 | 0.0 | 0.0 | 0.00 | 0.00 | 0.00 | 74 | 1015.4 |
| 20260505065047 | 15 | 0 | 0.0 | 0.0 | 0.00 | 0.00 | 0.00 | 74 | 1015.5 |
| 20260505064551 | 15 | 0 | 0.0 | 0.0 | 0.00 | 0.00 | 0.00 | 73 | 1015.4 |
| 20260505064046 | 15 | 0 | 0.0 | 0.0 | 0.00 | 0.00 | 0.00 | 73 | 1015.5 |
| 20260505063547 | 15 | 0 | 0.0 | 0.0 | 0.00 | 0.00 | 0.00 | 73 | 1015.5 |
| 20260505063052 | 15 | 0 | 0.0 | 0.0 | 0.00 | 0.00 | 0.00 | 73 | 1015.4 |
| 20260505062548 | 15 | 0 | 0.0 | 0.0 | 0.00 | 0.00 | 0.00 | 72 | 1015.4 |
| 20260505062047 | 15 | 0 | 0.0 | 0.0 | 0.00 | 0.00 | 0.00 | 72 | 1015.4 |
| 20260505061554 | 15 | 0 | 0.0 | 0.0 | 0.00 | 0.00 | 0.00 | 71 | 1015.5 |
| 20260505061048 | 15 | 0 | 0.0 | 0.0 | 0.00 | 0.00 | 0.00 | 71 | 1015.5 |
| 20260505060548 | 15 | 0 | 0.0 | 0.0 | 0.00 | 0.00 | 0.00 | 71 | 1015.5 |
| 20260505060054 | 15 | 0 | 0.0 | 0.0 | 0.00 | 0.00 | 0.00 | 71 | 1015.6 |
| 20260505055548 | 15 | 0 | 0.0 | 0.0 | 0.00 | 0.00 | 0.00 | 70 | 1015.7 |
| 20260505055047 | 15 | 0 | 0.0 | 0.0 | 0.00 | 0.00 | 0.00 | 70 | 1015.8 |
| 20260505054611 | 16 | 0 | 0.0 | 0.0 | 0.00 | 0.00 | 0.00 | 70 | 1015.9 |
| 20260505054048 | 16 | 0 | 0.0 | 0.0 | 0.00 | 0.00 | 0.00 | 69 | 1015.9 |
| 20260505053547 | 16 | 0 | 0.0 | 0.0 | 0.00 | 0.00 | 0.00 | 69 | 1015.9 |
| 20260505053107 | 16 | 0 | 0.0 | 0.0 | 0.00 | 0.00 | 0.00 | 68 | 1015.9 |
| 20260505052547 | 16 | 0 | 0.0 | 0.0 | 0.00 | 0.00 | 0.00 | 68 | 1015.8 |
| 20260505052047 | 16 | 0 | 0.0 | 0.0 | 0.00 | 0.00 | 0.00 | 68 | 1015.8 |
| 20260505051551 | 16 | 0 | 0.0 | 0.0 | 0.00 | 0.00 | 0.00 | 68 | 1015.9 |
| 20260505051047 | 16 | 0 | 0.0 | 0.0 | 0.00 | 0.00 | 0.00 | 68 | 1015.9 |
| 20260505050546 | 16 | 0 | 0.0 | 0.0 | 0.00 | 0.00 | 0.00 | 68 | 1015.9 |
| 20260505041559 | 17 | 0 | 0.0 | 0.0 | 0.00 | 0.00 | 0.00 | 67 | 1015.8 |
| 20260505041047 | 17 | 0 | 0.0 | 0.0 | 0.00 | 0.00 | 0.00 | 66 | 1015.8 |
| 20260505040547 | 17 | 0 | 0.0 | 0.0 | 0.00 | 0.00 | 0.00 | 66 | 1015.9 |
| 20260505040058 | 17 | 0 | 0.0 | 0.0 | 0.00 | 0.00 | 0.00 | 66 | 1015.7 |
| 20260505035546 | 17 | 0 | 0.0 | 0.0 | 0.00 | 0.00 | 0.00 | 66 | 1015.8 |
| 20260505035047 | 17 | 0 | 0.0 | 0.0 | 0.00 | 0.00 | 0.00 | 65 | 1015.8 |
| 20260505034556 | 17 | 0 | 0.0 | 0.0 | 0.00 | 0.00 | 0.00 | 65 | 1015.8 |
| 20260505034049 | 17 | 0 | 0.0 | 0.0 | 0.00 | 0.00 | 0.00 | 65 | 1015.7 |
| 20260505033547 | 17 | 0 | 0.0 | 0.0 | 0.00 | 0.00 | 0.00 | 65 | 1015.8 |
| 20260505033052 | 17 | 0 | 0.0 | 0.0 | 0.00 | 0.00 | 0.00 | 64 | 1015.8 |
| 20260505032546 | 17 | 0 | 0.0 | 0.0 | 0.00 | 0.00 | 0.00 | 64 | 1015.8 |
| 20260505032046 | 17 | 0 | 0.0 | 0.0 | 0.00 | 0.00 | 0.00 | 64 | 1015.8 |
| 20260505031608 | 17 | 0 | 0.0 | 0.0 | 0.00 | 0.00 | 0.00 | 64 | 1015.7 |
| 20260505031046 | 18 | 0 | 0.0 | 0.0 | 0.00 | 0.00 | 0.00 | 63 | 1015.8 |
| 20260505030548 | 18 | 0 | 0.0 | 0.0 | 0.00 | 0.00 | 0.00 | 63 | 1015.8 |
| 20260505030055 | 18 | 0 | 0.0 | 0.0 | 0.00 | 0.00 | 0.00 | 63 | 1015.7 |
| 20260505025547 | 18 | 0 | 0.0 | 0.0 | 0.00 | 0.00 | 0.00 | 62 | 1015.7 |
| 20260505025047 | 18 | 0 | 0.0 | 12.9 | 0.00 | 0.00 | 0.00 | 62 | 1015.8 |
| 20260505024557 | 18 | 0 | 0.0 | 12.9 | 0.00 | 0.00 | 0.00 | 62 | 1015.8 |
| 20260505024046 | 18 | 0 | 0.0 | 0.0 | 0.00 | 0.00 | 0.00 | 61 | 1015.8 |
| 20260505023550 | 18 | 0 | 0.0 | 0.0 | 0.00 | 0.00 | 0.00 | 62 | 1015.8 |
| 20260505023105 | 18 | 0 | 0.0 | 0.0 | 0.00 | 0.00 | 0.00 | 61 | 1015.8 |
| 20260505022548 | 18 | 0 | 0.0 | 0.0 | 0.00 | 0.00 | 0.00 | 61 | 1015.7 |
| 20260505022046 | 18 | 0 | 0.0 | 0.0 | 0.00 | 0.00 | 0.00 | 61 | 1015.7 |
| 20260505021553 | 18 | 0 | 0.0 | 0.0 | 0.00 | 0.00 | 0.00 | 61 | 1015.7 |
| 20260505021047 | 19 | 0 | 0.0 | 0.0 | 0.00 | 0.00 | 0.00 | 61 | 1015.6 |
| 20260505020550 | 19 | 0 | 0.0 | 1.6 | 0.00 | 0.00 | 0.00 | 60 | 1015.6 |
| 20260505020053 | 19 | 0 | 0.0 | 1.6 | 0.00 | 0.00 | 0.00 | 60 | 1015.6 |
| 20260505015547 | 19 | 0 | 0.0 | 16.1 | 0.00 | 0.00 | 0.00 | 60 | 1015.6 |
| 20260505015047 | 20 | 0 | 0.0 | 16.1 | 0.00 | 0.00 | 0.00 | 60 | 1015.5 |
| 20260505014605 | 20 | 0 | 0.0 | 6.4 | 0.00 | 0.00 | 0.00 | 60 | 1015.4 |
| 20260505014046 | 20 | 0 | 0.0 | 6.4 | 0.00 | 0.00 | 0.00 | 60 | 1015.4 |
| 20260505013546 | 20 | 0 | 0.0 | 17.7 | 0.00 | 0.00 | 0.00 | 59 | 1015.3 |
| 20260505013106 | 20 | 0 | 0.0 | 17.7 | 0.00 | 0.00 | 0.00 | 59 | 1015.1 |
| 20260505012547 | 20 | 0 | 1.6 | 17.7 | 0.00 | 0.00 | 0.00 | 59 | 1015.0 |
| 20260505012048 | 20 | 0 | 0.0 | 12.9 | 0.00 | 0.00 | 0.00 | 59 | 1015.0 |
| 20260505011551 | 20 | 0 | 0.0 | 12.9 | 0.00 | 0.00 | 0.00 | 59 | 1014.9 |
| 20260505011048 | 20 | 0 | 0.0 | 0.0 | 0.00 | 0.00 | 0.00 | 58 | 1014.9 |
| 20260505010547 | 21 | 0 | 0.0 | 0.0 | 0.00 | 0.00 | 0.00 | 58 | 1014.7 |
| 20260505010049 | 21 | 0 | 0.0 | 0.0 | 0.00 | 0.00 | 0.00 | 57 | 1014.5 |
| 20260505005547 | 21 | 0 | 0.0 | 0.0 | 0.00 | 0.00 | 0.00 | 55 | 1014.4 |
| 20260505005047 | 21 | 0 | 0.0 | 6.4 | 0.00 | 0.00 | 0.00 | 54 | 1014.4 |
| 20260505004556 | 21 | 0 | 0.0 | 6.4 | 0.00 | 0.00 | 0.00 | 52 | 1014.3 |
| 20260505004046 | 21 | 0 | 0.0 | 0.0 | 0.00 | 0.00 | 0.00 | 51 | 1014.0 |
| 20260505003546 | 21 | 0 | 0.0 | 0.0 | 0.00 | 0.00 | 0.00 | 51 | 1013.9 |
| 20260505003057 | 21 | 0 | 0.0 | 0.0 | 0.00 | 0.00 | 0.00 | 48 | 1013.9 |
| 20260505002547 | 21 | 0 | 0.0 | 0.0 | 0.00 | 0.00 | 0.00 | 47 | 1013.9 |
| 20260505002047 | 21 | 0 | 0.0 | 0.0 | 0.00 | 0.00 | 0.00 | 47 | 1013.8 |
| 20260505001556 | 21 | 0 | 0.0 | 0.0 | 0.00 | 0.00 | 0.00 | 46 | 1013.8 |
| 20260505001046 | 21 | 0 | 0.0 | 0.0 | 0.00 | 0.00 | 0.00 | 44 | 1013.7 |
| 20260505000546 | 22 | 0 | 0.0 | 0.0 | 0.00 | 0.00 | 0.00 | 44 | 1013.7 |
| 20260505000105 | 22 | 0 | 0.0 | 0.0 | 0.00 | 0.00 | 0.00 | 44 | 1013.7 |
| 20260504235545 | 22 | 0 | 0.0 | 0.0 | 0.00 | 0.00 | 0.00 | 43 | 1013.6 |
| 20260504235047 | 22 | 0 | 0.0 | 0.0 | 0.00 | 0.00 | 0.00 | 42 | 1013.5 |
| 20260504234547 | 22 | 0 | 0.0 | 0.0 | 0.00 | 0.00 | 0.00 | 42 | 1013.5 |
| 20260504234048 | 23 | 0 | 0.0 | 0.0 | 0.00 | 0.00 | 0.00 | 41 | 1013.5 |
| 20260504233547 | 23 | 0 | 0.0 | 0.0 | 0.00 | 0.00 | 0.00 | 39 | 1013.3 |
| 20260504233051 | 23 | 0 | 0.0 | 0.0 | 0.00 | 0.00 | 0.00 | 39 | 1013.2 |
| 20260504232547 | 23 | 0 | 0.0 | 0.0 | 0.00 | 0.00 | 0.00 | 38 | 1013.2 |
| 20260504232045 | 23 | 0 | 0.0 | 0.0 | 0.00 | 0.00 | 0.00 | 38 | 1013.2 |
| 20260504231549 | 23 | 0 | 0.0 | 0.0 | 0.00 | 0.00 | 0.00 | 38 | 1013.2 |
| 20260504231046 | 24 | 0 | 0.0 | 0.0 | 0.00 | 0.00 | 0.00 | 37 | 1013.2 |
| 20260504230544 | 24 | 0 | 0.0 | 0.0 | 0.00 | 0.00 | 0.00 | 37 | 1013.2 |